﻿測定場所 (Monitoring sites),日付 (Measurement date),時間 (Measurement time),線量率 最大値 (max) μGy/h,線量率 最小値 (min) μGy/h,線量率 平均値 (average) μGy/h,
江東 (Koto),2012-11-18,23:01～24:00,0.0451,0.0401,0.0428,
江東 (Koto),2012-11-18,22:01～23:00,0.0460,0.0405,0.0429,
江東 (Koto),2012-11-18,21:01～22:00,0.0461,0.0408,0.0431,
江東 (Koto),2012-11-18,20:01～21:00,0.0461,0.0409,0.0431,
江東 (Koto),2012-11-18,19:01～20:00,0.0460,0.0394,0.0427,
江東 (Koto),2012-11-18,18:01～19:00,0.0460,0.0408,0.0430,
江東 (Koto),2012-11-18,17:01～18:00,0.0451,0.0410,0.0431,
江東 (Koto),2012-11-18,16:01～17:00,0.0463,0.0393,0.0428,
江東 (Koto),2012-11-18,15:01～16:00,0.0449,0.0402,0.0428,
江東 (Koto),2012-11-18,14:01～15:00,0.0456,0.0404,0.0431,
江東 (Koto),2012-11-18,13:01～14:00,0.0463,0.0404,0.0430,
江東 (Koto),2012-11-18,12:01～13:00,0.0453,0.0406,0.0427,
江東 (Koto),2012-11-18,11:01～12:00,0.0453,0.0399,0.0429,
江東 (Koto),2012-11-18,10:01～11:00,0.0455,0.0409,0.0429,
江東 (Koto),2012-11-18,09:01～10:00,0.0472,0.0400,0.0428,
江東 (Koto),2012-11-18,08:01～09:00,0.0456,0.0406,0.0425,
江東 (Koto),2012-11-18,07:01～08:00,0.0457,0.0404,0.0429,
江東 (Koto),2012-11-18,06:01～07:00,0.0455,0.0403,0.0429,
江東 (Koto),2012-11-18,05:01～06:00,0.0461,0.0400,0.0429,
江東 (Koto),2012-11-18,04:01～05:00,0.0458,0.0404,0.0427,
江東 (Koto),2012-11-18,03:01～04:00,0.0446,0.0403,0.0429,
江東 (Koto),2012-11-18,02:01～03:00,0.0460,0.0410,0.0430,
江東 (Koto),2012-11-18,01:01～02:00,0.0456,0.0405,0.0427,
江東 (Koto),2012-11-18,00:01～01:00,0.0451,0.0400,0.0425,
江東 (Koto),2012-11-17,23:01～24:00,0.0452,0.0399,0.0427,
江東 (Koto),2012-11-17,22:01～23:00,0.0475,0.0413,0.0438,
江東 (Koto),2012-11-17,21:01～22:00,0.0546,0.0432,0.0477,
江東 (Koto),2012-11-17,20:01～21:00,0.0579,0.0485,0.0537,
江東 (Koto),2012-11-17,19:01～20:00,0.0598,0.0506,0.0551,
江東 (Koto),2012-11-17,18:01～19:00,0.0552,0.0489,0.0520,
江東 (Koto),2012-11-17,17:01～18:00,0.0537,0.0474,0.0507,
江東 (Koto),2012-11-17,16:01～17:00,0.0510,0.0448,0.0474,
江東 (Koto),2012-11-17,15:01～16:00,0.0527,0.0457,0.0482,
江東 (Koto),2012-11-17,14:01～15:00,0.0513,0.0425,0.0468,
江東 (Koto),2012-11-17,13:01～14:00,0.0485,0.0430,0.0453,
江東 (Koto),2012-11-17,12:01～13:00,0.0494,0.0437,0.0461,
江東 (Koto),2012-11-17,11:01～12:00,0.0481,0.0418,0.0451,
江東 (Koto),2012-11-17,10:01～11:00,0.0474,0.0410,0.0441,
江東 (Koto),2012-11-17,09:01～10:00,0.0477,0.0410,0.0431,
江東 (Koto),2012-11-17,08:01～09:00,0.0454,0.0403,0.0429,
江東 (Koto),2012-11-17,07:01～08:00,0.0453,0.0405,0.0427,
江東 (Koto),2012-11-17,06:01～07:00,0.0459,0.0401,0.0427,
江東 (Koto),2012-11-17,05:01～06:00,0.0464,0.0398,0.0431,
江東 (Koto),2012-11-17,04:01～05:00,0.0454,0.0408,0.0430,
江東 (Koto),2012-11-17,03:01～04:00,0.0454,0.0405,0.0430,
江東 (Koto),2012-11-17,02:01～03:00,0.0463,0.0402,0.0428,
江東 (Koto),2012-11-17,01:01～02:00,0.0468,0.0402,0.0428,
江東 (Koto),2012-11-17,00:01～01:00,0.0455,0.0404,0.0430,
江東 (Koto),2012-11-16,23:01～24:00,0.0458,0.0404,0.0429,
江東 (Koto),2012-11-16,22:01～23:00,0.0453,0.0400,0.0425,
江東 (Koto),2012-11-16,21:01～22:00,0.0446,0.0407,0.0428,
江東 (Koto),2012-11-16,20:01～21:00,0.0454,0.0408,0.0427,
江東 (Koto),2012-11-16,19:01～20:00,0.0451,0.0405,0.0426,
江東 (Koto),2012-11-16,18:01～19:00,0.0452,0.0402,0.0426,
江東 (Koto),2012-11-16,17:01～18:00,0.0448,0.0397,0.0424,
江東 (Koto),2012-11-16,16:01～17:00,0.0462,0.0402,0.0426,
江東 (Koto),2012-11-16,15:01～16:00,0.0460,0.0406,0.0427,
江東 (Koto),2012-11-16,14:01～15:00,0.0449,0.0390,0.0423,
江東 (Koto),2012-11-16,13:01～14:00,0.0468,0.0397,0.0426,
江東 (Koto),2012-11-16,12:01～13:00,0.0457,0.0400,0.0424,
江東 (Koto),2012-11-16,11:01～12:00,0.0449,0.0398,0.0424,
江東 (Koto),2012-11-16,10:01～11:00,0.0444,0.0396,0.0422,
江東 (Koto),2012-11-16,09:01～10:00,0.0462,0.0403,0.0426,
江東 (Koto),2012-11-16,08:01～09:00,0.0449,0.0399,0.0427,
江東 (Koto),2012-11-16,07:01～08:00,0.0457,0.0402,0.0429,
江東 (Koto),2012-11-16,06:01～07:00,0.0452,0.0406,0.0428,
江東 (Koto),2012-11-16,05:01～06:00,0.0466,0.0414,0.0430,
江東 (Koto),2012-11-16,04:01～05:00,0.0451,0.0410,0.0430,
江東 (Koto),2012-11-16,03:01～04:00,0.0451,0.0402,0.0432,
江東 (Koto),2012-11-16,02:01～03:00,0.0449,0.0407,0.0428,
江東 (Koto),2012-11-16,01:01～02:00,0.0454,0.0405,0.0430,
江東 (Koto),2012-11-16,00:01～01:00,0.0453,0.0405,0.0428,
江東 (Koto),2012-11-15,23:01～24:00,0.0453,0.0402,0.0432,
江東 (Koto),2012-11-15,22:01～23:00,0.0464,0.0408,0.0431,
江東 (Koto),2012-11-15,21:01～22:00,0.0461,0.0393,0.0427,
江東 (Koto),2012-11-15,20:01～21:00,0.0449,0.0404,0.0428,
江東 (Koto),2012-11-15,19:01～20:00,0.0457,0.0405,0.0432,
江東 (Koto),2012-11-15,18:01～19:00,0.0456,0.0395,0.0429,
江東 (Koto),2012-11-15,17:01～18:00,0.0464,0.0400,0.0430,
江東 (Koto),2012-11-15,16:01～17:00,0.0456,0.0399,0.0427,
江東 (Koto),2012-11-15,15:01～16:00,0.0455,0.0395,0.0429,
江東 (Koto),2012-11-15,14:01～15:00,0.0452,0.0401,0.0432,
江東 (Koto),2012-11-15,13:01～14:00,0.0456,0.0410,0.0433,
江東 (Koto),2012-11-15,12:01～13:00,0.0470,0.0405,0.0432,
江東 (Koto),2012-11-15,11:01～12:00,0.0450,0.0401,0.0430,
江東 (Koto),2012-11-15,10:01～11:00,0.0460,0.0406,0.0430,
江東 (Koto),2012-11-15,09:01～10:00,0.0466,0.0408,0.0434,
江東 (Koto),2012-11-15,08:01～09:00,0.0467,0.0405,0.0433,
江東 (Koto),2012-11-15,07:01～08:00,0.0465,0.0403,0.0432,
江東 (Koto),2012-11-15,06:01～07:00,0.0480,0.0408,0.0433,
江東 (Koto),2012-11-15,05:01～06:00,0.0460,0.0408,0.0431,
江東 (Koto),2012-11-15,04:01～05:00,0.0464,0.0410,0.0432,
江東 (Koto),2012-11-15,03:01～04:00,0.0466,0.0401,0.0428,
江東 (Koto),2012-11-15,02:01～03:00,0.0452,0.0401,0.0429,
江東 (Koto),2012-11-15,01:01～02:00,0.0453,0.0405,0.0428,
江東 (Koto),2012-11-15,00:01～01:00,0.0456,0.0405,0.0429,
江東 (Koto),2012-11-14,23:01～24:00,0.0457,0.0410,0.0428,
江東 (Koto),2012-11-14,22:01～23:00,0.0469,0.0407,0.0430,
江東 (Koto),2012-11-14,21:01～22:00,0.0452,0.0407,0.0429,
江東 (Koto),2012-11-14,20:01～21:00,0.0457,0.0400,0.0426,
江東 (Koto),2012-11-14,19:01～20:00,0.0458,0.0411,0.0431,
江東 (Koto),2012-11-14,18:01～19:00,0.0453,0.0405,0.0427,
江東 (Koto),2012-11-14,17:01～18:00,0.0458,0.0400,0.0429,
江東 (Koto),2012-11-14,16:01～17:00,0.0451,0.0405,0.0424,
江東 (Koto),2012-11-14,15:01～16:00,0.0449,0.0394,0.0427,
江東 (Koto),2012-11-14,14:01～15:00,0.0463,0.0407,0.0429,
江東 (Koto),2012-11-14,13:01～14:00,0.0457,0.0398,0.0427,
江東 (Koto),2012-11-14,12:01～13:00,0.0453,0.0399,0.0426,
江東 (Koto),2012-11-14,11:01～12:00,0.0468,0.0397,0.0429,
江東 (Koto),2012-11-14,10:01～11:00,0.0449,0.0395,0.0427,
江東 (Koto),2012-11-14,09:01～10:00,0.0462,0.0404,0.0428,
江東 (Koto),2012-11-14,08:01～09:00,0.0456,0.0402,0.0428,
江東 (Koto),2012-11-14,07:01～08:00,0.0448,0.0405,0.0426,
江東 (Koto),2012-11-14,06:01～07:00,0.0445,0.0405,0.0426,
江東 (Koto),2012-11-14,05:01～06:00,0.0449,0.0412,0.0432,
江東 (Koto),2012-11-14,04:01～05:00,0.0453,0.0399,0.0427,
江東 (Koto),2012-11-14,03:01～04:00,0.0452,0.0407,0.0428,
江東 (Koto),2012-11-14,02:01～03:00,0.0450,0.0403,0.0425,
江東 (Koto),2012-11-14,01:01～02:00,0.0462,0.0404,0.0429,
江東 (Koto),2012-11-14,00:01～01:00,0.0450,0.0405,0.0428,
江東 (Koto),2012-11-13,23:01～24:00,0.0450,0.0403,0.0427,
江東 (Koto),2012-11-13,22:01～23:00,0.0453,0.0385,0.0426,
江東 (Koto),2012-11-13,21:01～22:00,0.0456,0.0405,0.0428,
江東 (Koto),2012-11-13,20:01～21:00,0.0455,0.0405,0.0428,
江東 (Koto),2012-11-13,19:01～20:00,0.0462,0.0398,0.0429,
江東 (Koto),2012-11-13,18:01～19:00,0.0446,0.0398,0.0425,
江東 (Koto),2012-11-13,17:01～18:00,0.0469,0.0398,0.0426,
江東 (Koto),2012-11-13,16:01～17:00,0.0457,0.0398,0.0425,
江東 (Koto),2012-11-13,15:01～16:00,0.0450,0.0403,0.0427,
江東 (Koto),2012-11-13,14:01～15:00,0.0463,0.0402,0.0426,
江東 (Koto),2012-11-13,13:01～14:00,0.0454,0.0397,0.0424,
江東 (Koto),2012-11-13,12:01～13:00,0.0462,0.0394,0.0428,
江東 (Koto),2012-11-13,11:01～12:00,0.0458,0.0398,0.0431,
江東 (Koto),2012-11-13,10:01～11:00,0.0462,0.0400,0.0428,
江東 (Koto),2012-11-13,09:01～10:00,0.0453,0.0402,0.0428,
江東 (Koto),2012-11-13,08:01～09:00,0.0452,0.0410,0.0428,
江東 (Koto),2012-11-13,07:01～08:00,0.0453,0.0408,0.0431,
江東 (Koto),2012-11-13,06:01～07:00,0.0453,0.0403,0.0428,
江東 (Koto),2012-11-13,05:01～06:00,0.0454,0.0400,0.0426,
江東 (Koto),2012-11-13,04:01～05:00,0.0465,0.0411,0.0428,
江東 (Koto),2012-11-13,03:01～04:00,0.0462,0.0395,0.0426,
江東 (Koto),2012-11-13,02:01～03:00,0.0461,0.0400,0.0427,
江東 (Koto),2012-11-13,01:01～02:00,0.0461,0.0400,0.0428,
江東 (Koto),2012-11-13,00:01～01:00,0.0448,0.0404,0.0427,
江東 (Koto),2012-11-12,23:01～24:00,0.0449,0.0398,0.0426,
江東 (Koto),2012-11-12,22:01～23:00,0.0452,0.0394,0.0426,
江東 (Koto),2012-11-12,21:01～22:00,0.0445,0.0406,0.0426,
江東 (Koto),2012-11-12,20:01～21:00,0.0455,0.0401,0.0424,
江東 (Koto),2012-11-12,19:01～20:00,0.0448,0.0399,0.0426,
江東 (Koto),2012-11-12,18:01～19:00,0.0459,0.0404,0.0426,
江東 (Koto),2012-11-12,17:01～18:00,0.0448,0.0399,0.0422,
江東 (Koto),2012-11-12,16:01～17:00,0.0459,0.0395,0.0425,
江東 (Koto),2012-11-12,15:01～16:00,0.0458,0.0392,0.0425,
江東 (Koto),2012-11-12,14:01～15:00,0.0450,0.0399,0.0422,
江東 (Koto),2012-11-12,13:01～14:00,0.0445,0.0393,0.0421,
江東 (Koto),2012-11-12,12:01～13:00,0.0455,0.0405,0.0425,
江東 (Koto),2012-11-12,11:01～12:00,0.0456,0.0391,0.0424,
江東 (Koto),2012-11-12,10:01～11:00,0.0459,0.0390,0.0424,
江東 (Koto),2012-11-12,09:01～10:00,0.0454,0.0402,0.0427,
江東 (Koto),2012-11-12,08:01～09:00,0.0454,0.0403,0.0426,
江東 (Koto),2012-11-12,07:01～08:00,0.0455,0.0400,0.0425,
江東 (Koto),2012-11-12,06:01～07:00,0.0448,0.0397,0.0422,
江東 (Koto),2012-11-12,05:01～06:00,0.0463,0.0399,0.0423,
江東 (Koto),2012-11-12,04:01～05:00,0.0459,0.0406,0.0425,
江東 (Koto),2012-11-12,03:01～04:00,0.0458,0.0409,0.0434,
江東 (Koto),2012-11-12,02:01～03:00,0.0465,0.0410,0.0439,
江東 (Koto),2012-11-12,01:01～02:00,0.0482,0.0425,0.0458,
江東 (Koto),2012-11-12,00:01～01:00,0.0486,0.0433,0.0462,
